User: anonymous   Login
Location: NJAA Observatory
(40.6819°N, 74.8979°W)
Time: 19:25:41
(UTC-04:00)
Language:

Cosmos 1328 Rocket - Orbit

View from above orbital plane
View from above orbital plane
View from above satellite
View from above satellite

Ground track
Ground track

The orbit data is extracted from the following two-line orbital elements,

1 12988U 81117B   17141.94746828 +.00000098 +00000-0 +87250-5 0  9992
2 12988 082.5242 097.9667 0016688 296.8333 123.1150 14.84651417894870
Epoch (UTC): 21 May 2017 22:44:21
Eccentricity: 0.0016688
inclination: 82.5242°
perigee height: 603 km
apogee height: 626 km
right ascension of ascending node: 97.9667°
argument of perigee: 296.8333°
revolutions per day: 14.84651417
mean anomaly at epoch: 123.1150°
orbit number at epoch: 89487

The dashed part of the orbit path shows where the satellite is in the earth's shadow,  

DLR